When you browse on this site, cookies collect data to enhance your experience and personalize the content and advertising you see.
Visit our Privacy Policy to learn more. By continuing to use the site, you agree to this use of cookies and data.
  • En España
  • Lista de países
  • Para 7 días
  • Temperatura del agua
  • Mapa Satelital
  • El tiempo en el mapa
  • Informadores
  • user-avatar
    Iniciar sesión

    Tiempo cada hora Kota

    Hoy, 18 Febrero, Lunes

    Tiempo Temperatura Precipitaciones Viento Presión Humedad
    00:00 +20°C° 0 mm 1 mps 735 mmHg 25%
    01:00 +19°C° 0 mm 1 mps 735 mmHg 25%
    02:00 +17°C° 0 mm 0 mps 734 mmHg 26%
    03:00 +19°C° 0 mm 1 mps 734 mmHg 26%
    04:00 +19°C° 0 mm 1 mps 734 mmHg 27%
    05:00 +20°C° 0 mm 1 mps 734 mmHg 26%
    06:00 +21°C° 0 mm 1 mps 734 mmHg 26%
    07:00 +21°C° 0 mm 1 mps 735 mmHg 26%
    08:00 +22°C° 0 mm 1 mps 735 mmHg 26%
    09:00 +24°C° 0 mm 2 mps 735 mmHg 24%
    10:00 +26°C° 0 mm 3 mps 736 mmHg 22%
    11:00 +29°C° 0 mm 2 mps 736 mmHg 17%
    12:00 +29°C° 0 mm 3 mps 735 mmHg 18%
    13:00 +29°C° 0 mm 4 mps 734 mmHg 18%
    14:00 +30°C° 0 mm 5 mps 734 mmHg 19%
    15:00 +29°C° 0 mm 5 mps 734 mmHg 21%
    16:00 +28°C° 0 mm 5 mps 733 mmHg 23%
    17:00 +27°C° 0 mm 2 mps 733 mmHg 22%
    18:00 +26°C° 0 mm 2 mps 733 mmHg 23%
    19:00 +25°C° 0 mm 2 mps 733 mmHg 24%
    20:00 +24°C° 0 mm 2 mps 733 mmHg 25%
    21:00 +23°C° 0 mm 2 mps 734 mmHg 30%
    22:00 +23°C° 0 mm 2 mps 734 mmHg 34%
    23:00 +21°C° 0 mm 2 mps 734 mmHg 39%

    Mañana, 19 Febrero, Martes

    Tiempo Temperatura Precipitaciones Viento Presión Humedad
    00:00 +22°C° 0 mm 1 mps 734 mmHg 42%
    01:00 +21°C° 0 mm 1 mps 734 mmHg 46%
    02:00 +21°C° 0 mm 1 mps 734 mmHg 50%
    03:00 +19°C° 0 mm 2 mps 734 mmHg 51%
    04:00 +19°C° 0 mm 2 mps 734 mmHg 52%
    05:00 +19°C° 0 mm 2 mps 734 mmHg 53%
    06:00 +21°C° 0 mm 1 mps 735 mmHg 50%
    07:00 +22°C° 0 mm 1 mps 735 mmHg 48%
    08:00 +23°C° 0 mm 1 mps 736 mmHg 45%
    09:00 +25°C° 0 mm 1 mps 736 mmHg 40%
    10:00 +27°C° 0 mm 1 mps 737 mmHg 36%
    11:00 +29°C° 0 mm 1 mps 737 mmHg 32%
    12:00 +30°C° 0 mm 1 mps 737 mmHg 29%
    13:00 +31°C° 0 mm 2 mps 736 mmHg 26%
    14:00 +32°C° 0 mm 2 mps 736 mmHg 23%
    15:00 +32°C° 0 mm 1 mps 735 mmHg 24%
    16:00 +32°C° 0 mm 1 mps 735 mmHg 24%
    17:00 +29°C° 0 mm 0 mps 735 mmHg 25%
    18:00 +30°C° 0 mm 1 mps 736 mmHg 26%
    19:00 +28°C° 0 mm 1 mps 736 mmHg 28%
    20:00 +26°C° 0 mm 1 mps 737 mmHg 29%
    21:00 +26°C° 0 mm 1 mps 737 mmHg 30%
    22:00 +25°C° 0 mm 1 mps 737 mmHg 32%
    23:00 +24°C° 0 mm 1 mps 737 mmHg 33%

    Pasado mañana, 20 Febrero, Miércoles

    Tiempo Temperatura Precipitaciones Viento Presión Humedad
    00:00 +24°C° 0 mm 1 mps 737 mmHg 35%
    01:00 +21°C° 0 mm 0 mps 737 mmHg 36%
    02:00 +20°C° 0 mm 0 mps 736 mmHg 38%
    03:00 +21°C° 0 mm 0 mps 737 mmHg 39%
    04:00 +21°C° 0 mm 0 mps 737 mmHg 39%
    05:00 +23°C° 0 mm 1 mps 737 mmHg 40%
    06:00 +23°C° 0 mm 1 mps 738 mmHg 42%
    07:00 +23°C° 0 mm 2 mps 738 mmHg 43%
    08:00 +23°C° 0 mm 2 mps 739 mmHg 45%
    09:00 +26°C° 0 mm 3 mps 739 mmHg 40%
    10:00 +28°C° 0 mm 4 mps 739 mmHg 35%
    11:00 +30°C° 0 mm 4 mps 739 mmHg 30%
    12:00 +32°C° 0 mm 4 mps 738 mmHg 27%
    13:00 +34°C° 0 mm 4 mps 737 mmHg 24%
    14:00 +35°C° 0 mm 4 mps 737 mmHg 20%
    15:00 +35°C° 0 mm 3 mps 736 mmHg 20%
    16:00 +35°C° 0 mm 2 mps 736 mmHg 20%
    17:00 +34°C° 0 mm 1 mps 736 mmHg 21%
    18:00 +31°C° 0 mm 1 mps 737 mmHg 23%
    19:00 +29°C° 0 mm 2 mps 737 mmHg 25%
    20:00 +27°C° 0 mm 2 mps 737 mmHg 27%
    21:00 +26°C° 0 mm 2 mps 738 mmHg 30%
    22:00 +25°C° 0 mm 3 mps 738 mmHg 34%
    23:00 +24°C° 0 mm 3 mps 738 mmHg 38%

    21 Febrero, Jueves

    Tiempo Temperatura Precipitaciones Viento Presión Humedad
    00:00 +24°C° 0 mm 3 mps 738 mmHg 38%
    01:00 +23°C° 0 mm 2 mps 738 mmHg 39%
    02:00 +23°C° 0 mm 2 mps 737 mmHg 39%
    03:00 +21°C° 0 mm 2 mps 737 mmHg 39%
    04:00 +22°C° 0 mm 1 mps 737 mmHg 39%
    05:00 +22°C° 0 mm 1 mps 737 mmHg 39%
    06:00 +23°C° 0 mm 1 mps 737 mmHg 37%
    07:00 +24°C° 0 mm 1 mps 738 mmHg 35%
    08:00 +25°C° 0 mm 2 mps 739 mmHg 33%
    09:00 +27°C° 0 mm 2 mps 739 mmHg 31%
    10:00 +29°C° 0 mm 3 mps 739 mmHg 28%
    11:00 +33°C° 0 mm 3 mps 739 mmHg 25%
    12:00 +34°C° 0 mm 3 mps 738 mmHg 24%
    13:00 +35°C° 0 mm 3 mps 738 mmHg 22%
    14:00 +36°C° 0 mm 3 mps 737 mmHg 20%
    15:00 +36°C° 0 mm 3 mps 737 mmHg 20%
    16:00 +35°C° 0 mm 3 mps 736 mmHg 20%
    17:00 +35°C° 0 mm 2 mps 736 mmHg 20%
    18:00 +32°C° 0 mm 2 mps 737 mmHg 22%
    19:00 +30°C° 0 mm 2 mps 737 mmHg 23%
    20:00 +28°C° 0 mm 3 mps 738 mmHg 25%
    21:00 +27°C° 0 mm 3 mps 738 mmHg 30%
    22:00 +26°C° 0 mm 2 mps 738 mmHg 34%
    23:00 +25°C° 0 mm 2 mps 738 mmHg 39%

    22 Febrero, Viernes

    Tiempo Temperatura Precipitaciones Viento Presión Humedad
    00:00 +24°C° 0 mm 2 mps 738 mmHg 44%
    01:00 +24°C° 0 mm 2 mps 738 mmHg 49%
    02:00 +23°C° 0 mm 2 mps 737 mmHg 55%
    03:00 +21°C° 0 mm 2 mps 737 mmHg 59%
    04:00 +21°C° 0 mm 2 mps 737 mmHg 63%
    05:00 +20°C° 0 mm 2 mps 737 mmHg 67%
    06:00 +21°C° 0 mm 3 mps 738 mmHg 66%
    07:00 +21°C° 0 mm 3 mps 739 mmHg 65%
    08:00 +22°C° 0 mm 3 mps 739 mmHg 63%
    09:00 +25°C° 0 mm 3 mps 739 mmHg 56%
    10:00 +27°C° 0 mm 3 mps 739 mmHg 49%
    11:00 +29°C° 0 mm 3 mps 740 mmHg 42%
    12:00 +30°C° 0 mm 3 mps 739 mmHg 37%
    13:00 +31°C° 0 mm 3 mps 738 mmHg 33%
    14:00 +33°C° 0 mm 3 mps 737 mmHg 28%
    15:00 +33°C° 0 mm 3 mps 737 mmHg 28%
    16:00 +33°C° 0 mm 3 mps 737 mmHg 28%
    17:00 +31°C° 0 mm 3 mps 736 mmHg 28%
    18:00 +30°C° 0 mm 3 mps 737 mmHg 32%
    19:00 +28°C° 0 mm 3 mps 737 mmHg 35%
    20:00 +26°C° 0 mm 3 mps 738 mmHg 39%
    21:00 +25°C° 0 mm 3 mps 738 mmHg 40%
    22:00 +25°C° 0 mm 2 mps 738 mmHg 41%
    23:00 +24°C° 0 mm 2 mps 738 mmHg 41%

    23 Febrero, Sábado

    Tiempo Temperatura Precipitaciones Viento Presión Humedad
    00:00 +23°C° 0 mm 2 mps 737 mmHg 38%
    01:00 +21°C° 0 mm 3 mps 737 mmHg 36%
    02:00 +20°C° 0 mm 3 mps 736 mmHg 33%
    03:00 +20°C° 0 mm 3 mps 736 mmHg 39%
    04:00 +20°C° 0 mm 3 mps 736 mmHg 44%
    05:00 +19°C° 0 mm 3 mps 736 mmHg 50%
    06:00 +20°C° 0 mm 3 mps 737 mmHg 47%
    07:00 +20°C° 0 mm 4 mps 737 mmHg 44%
    08:00 +21°C° 0 mm 4 mps 738 mmHg 42%
    09:00 +23°C° 0 mm 4 mps 738 mmHg 41%
    10:00 +26°C° 0 mm 4 mps 738 mmHg 40%
    11:00 +27°C° 0 mm 4 mps 738 mmHg 39%
    12:00 +28°C° 0 mm 3 mps 737 mmHg 37%
    13:00 +29°C° 0 mm 2 mps 736 mmHg 35%
    14:00 +30°C° 0 mm 1 mps 736 mmHg 33%
    15:00 +30°C° 0 mm 1 mps 735 mmHg 33%
    16:00 +30°C° 0 mm 1 mps 735 mmHg 32%
    17:00 +30°C° 0 mm 1 mps 735 mmHg 32%
    18:00 +28°C° 0 mm 1 mps 735 mmHg 34%
    19:00 +27°C° 0 mm 1 mps 735 mmHg 37%
    20:00 +25°C° 0 mm 1 mps 736 mmHg 40%
    21:00 +25°C° 0 mm 1 mps 736 mmHg 42%
    22:00 +24°C° 0 mm 2 mps 735 mmHg 44%
    23:00 +23°C° 0 mm 2 mps 735 mmHg 46%
    Mostrar más